Wind_Speed
37 36 32 27 24 23 24 26 28 30 31 31 32 33 33 33 35 36 37 38 38 38 39 40 41 42 44 45 47 47 48 48 48 48 48 49 49 48 48 49 48 48 48 46 45 44 44 42 41 40 39 38 38 37 36 34 32 30 27 26 26 24 23 20 10 7 13 18 16 15 16 16 15 15 13 12 11 7 6 8 9 10 12 12 12
38 37 35 32 30 27 25 25 26 28 30 31 32 33 33 34 34 35 37 38 38 39 40 40 40 41 43 45 47 48 48 49 49 49 50 50 49 48 48 49 49 48 48 48 48 46 45 44 43 42 41 40 40 39 39 38 35 33 31 29 28 27 25 23 17 10 11 14 15 13 13 12 12 11 11 12 10 8 8 9 10 11 12 11 11
39 38 37 35 34 31 29 27 25 26 28 30 32 33 34 35 35 35 36 37 38 39 40 41 41 42 43 44 45 46 48 49 49 50 51 52 51 50 49 51 51 51 50 51 50 48 46 45 44 44 42 41 41 41 40 39 37 35 33 31 30 29 26 25 21 15 12 12 13 12 11 11 10 9 10 11 9 9 10 10 11 12 11 11 12
42 41 40 39 38 36 34 32 29 27 27 28 30 31 33 34 35 36 36 36 37 38 39 40 41 42 43 44 44 45 46 48 49 51 52 51 51 51 51 52 52 52 54 54 52 51 50 48 47 46 45 44 43 42 41 39 38 36 34 33 31 29 28 26 24 20 15 11 10 11 11 11 11 10 11 10 9 9 9 10 11 12 12 12 13
41 41 40 40 40 39 39 37 34 31 29 29 28 29 30 32 33 35 36 36 37 38 39 39 40 42 44 45 45 46 47 48 49 51 52 52 51 51 51 52 53 53 53 55 55 55 54 53 51 49 48 47 45 44 43 40 38 37 35 34 32 30 28 27 25 22 17 13 11 11 12 12 12 11 10 9 9 9 9 11 12 13 14 14 14
38 38 38 38 38 39 40 40 38 36 33 31 29 28 28 28 30 32 34 35 37 38 39 40 41 43 44 44 45 47 48 48 48 50 51 52 52 51 50 51 54 53 53 54 56 57 57 55 54 53 52 51 49 47 45 42 40 39 37 35 33 31 29 28 26 23 19 16 13 11 12 12 13 12 8 7 9 10 11 13 14 14 14 14 14
36 36 35 35 34 36 38 39 39 38 36 34 31 29 28 27 27 29 31 33 36 37 38 39 41 42 43 44 44 45 45 47 49 49 49 50 50 50 50 51 53 53 52 54 55 57 58 57 56 56 56 55 53 50 47 45 43 41 39 37 35 33 31 29 26 23 20 16 13 12 11 10 11 11 6 4 5 7 8 10 12 12 10 10 12
34 34 34 33 33 34 36 37 38 39 39 36 33 30 29 28 28 28 29 31 34 35 37 38 39 41 42 43 43 43 43 46 48 49 50 49 48 47 47 49 53 53 52 52 53 54 56 56 56 57 57 56 54 52 50 48 46 43 40 38 36 35 33 30 27 24 20 16 13 11 9 8 8 8 6 3 3 4 4 5 8 10 7 9 11
31 32 32 31 31 33 35 35 37 39 39 38 36 33 30 29 28 28 28 30 32 34 35 36 37 39 40 41 41 42 43 46 48 49 49 49 48 48 47 47 50 51 51 50 51 52 53 54 54 55 56 54 52 51 49 48 47 46 44 41 39 37 34 32 29 26 22 17 13 11 9 8 8 8 7 7 7 5 4 6 9 9 8 10 12
30 30 31 30 30 31 33 35 37 38 38 37 37 35 33 30 28 27 28 29 31 33 33 35 37 38 39 39 40 41 43 46 47 48 50 50 49 48 47 46 46 45 46 48 49 50 51 52 52 52 52 52 50 49 48 47 46 45 44 43 42 39 37 34 32 30 26 21 16 14 11 10 11 11 10 10 9 8 7 8 9 9 8 9 11
29 30 31 31 31 31 32 34 36 38 38 37 37 37 35 32 28 27 26 27 30 31 33 35 37 37 38 38 40 42 44 46 46 47 50 51 50 48 47 47 46 44 43 44 47 49 50 50 48 48 49 49 48 47 46 46 45 42 40 39 39 38 38 36 35 34 31 26 22 18 14 13 14 14 13 12 10 10 10 10 10 9 7 7 8
29 29 30 31 31 31 32 33 35 36 38 38 38 38 36 34 31 29 27 26 28 29 32 34 36 36 37 38 40 42 44 45 46 46 49 51 51 49 46 44 45 45 44 42 42 44 46 47 46 46 48 48 47 45 44 43 42 40 37 36 37 36 34 33 33 34 35 32 27 22 18 15 15 16 16 14 12 11 11 11 11 9 8 9 10
29 30 30 30 30 31 32 33 34 35 36 37 38 38 38 37 35 32 30 28 27 28 30 32 34 35 36 38 40 42 43 44 45 46 48 49 51 49 46 44 43 45 46 44 42 41 42 44 44 44 45 46 45 45 43 40 39 38 36 34 35 34 32 30 28 28 32 33 30 25 22 18 17 18 18 15 13 12 12 12 11 10 9 10 11
29 30 30 29 29 30 31 32 34 35 35 36 37 37 37 37 35 34 32 30 28 28 29 31 33 34 35 37 39 40 42 44 44 45 47 48 50 50 48 45 44 44 46 47 46 44 44 45 45 44 44 45 45 45 43 40 38 36 35 34 34 33 32 31 27 25 28 29 28 26 23 19 17 17 17 15 14 13 12 11 10 9 8 10 13
27 27 27 28 29 29 30 32 34 35 35 34 34 35 36 36 36 34 32 30 29 29 29 30 31 33 35 36 37 39 41 41 41 43 45 47 48 48 47 46 44 43 44 46 48 48 48 48 48 47 46 46 47 46 45 43 40 36 34 35 35 34 32 32 30 29 28 27 25 21 19 17 16 15 14 14 13 12 12 11 11 10 11 14 17
27 26 26 27 29 30 31 33 35 35 34 33 33 33 34 35 36 35 32 30 30 29 29 30 30 32 33 35 36 38 39 39 40 42 44 45 45 45 45 46 44 42 42 43 45 47 48 50 51 50 49 49 48 46 46 45 41 38 36 35 35 34 33 30 28 28 27 25 22 18 16 16 16 14 13 12 12 12 13 14 13 12 11 12 13
27 27 27 28 29 31 32 34 35 35 33 33 33 33 33 34 36 35 32 30 30 29 29 30 30 31 32 33 35 37 37 37 38 41 42 43 42 42 42 42 42 40 40 41 44 45 47 49 50 50 50 49 46 44 45 46 42 38 37 35 33 32 31 27 24 23 23 23 21 19 18 17 15 14 14 13 12 13 15 15 13 11 8 6 4
27 27 29 30 32 33 34 34 34 33 32 32 33 34 34 34 35 34 32 30 30 30 29 30 30 30 30 32 34 36 37 36 36 38 40 41 41 41 40 39 39 38 37 38 41 43 45 46 49 51 51 49 46 42 42 45 44 40 38 36 34 33 32 29 25 23 22 22 21 20 19 17 16 16 16 15 13 14 15 14 11 9 8 5 3
28 29 31 32 33 34 35 34 32 31 32 33 33 35 35 35 36 35 33 31 31 30 29 29 30 30 30 32 33 34 36 35 34 35 36 37 40 41 39 37 36 36 34 34 36 40 42 44 47 50 51 50 47 42 39 42 44 43 40 39 38 37 37 35 31 27 25 23 22 21 19 18 19 20 19 18 18 17 15 13 11 9 8 6 4
29 30 32 33 34 36 36 34 32 32 32 34 34 34 35 35 36 36 35 33 32 30 29 29 30 31 30 30 31 32 33 33 33 33 33 35 39 40 38 37 35 33 31 31 33 37 41 43 44 48 50 50 46 39 37 41 44 44 43 43 43 41 38 36 34 32 29 26 23 22 22 21 22 22 21 20 19 16 13 10 9 8 6 5 4
30 31 33 35 37 38 38 36 34 33 34 34 34 35 35 35 35 36 36 35 32 30 29 29 29 31 31 30 30 31 32 32 32 32 32 34 37 40 39 38 36 32 29 29 33 38 41 42 42 42 43 44 41 37 36 38 41 44 45 45 45 41 37 35 34 32 30 26 23 23 24 24 23 22 21 19 16 13 10 8 6 5 5 5 5
31 32 35 37 37 38 39 38 36 35 36 35 34 36 38 36 35 35 34 34 33 32 30 28 27 29 30 30 31 31 31 32 32 32 33 34 36 40 41 39 36 33 31 30 33 38 42 42 41 37 36 39 39 37 36 35 37 43 45 43 39 35 33 35 33 30 29 26 24 23 24 24 24 22 20 18 14 11 9 6 4 3 4 4 5
32 35 37 38 38 39 38 38 36 35 37 36 34 37 39 37 36 34 32 31 30 30 29 27 25 26 27 29 31 31 31 31 31 32 34 34 36 39 41 40 37 36 35 33 34 39 42 43 42 38 36 38 39 37 36 35 35 40 43 39 33 30 30 33 32 28 27 26 24 22 23 24 24 22 20 17 12 9 6 3 2 2 3 3 4
33 35 37 38 40 40 37 37 37 37 38 37 35 36 38 36 35 33 31 29 27 26 26 25 22 22 24 26 28 30 30 31 31 32 34 35 36 37 38 39 39 39 36 33 33 39 44 44 42 38 36 37 37 36 37 35 34 38 39 35 31 29 30 32 32 27 25 24 23 21 21 24 24 22 18 15 11 8 5 2 1 2 3 4 4
34 36 37 38 40 39 39 39 39 39 39 37 34 34 35 34 32 32 29 27 25 24 24 23 22 22 22 22 24 26 28 29 30 31 33 35 36 37 37 36 39 41 39 34 32 36 40 41 38 36 35 37 36 36 38 36 33 35 36 33 31 30 29 30 30 27 24 23 22 21 22 23 22 19 16 13 9 6 5 3 3 3 4 5 6
36 37 38 38 38 38 39 41 40 39 38 35 34 33 33 31 31 30 28 27 26 25 23 22 21 21 22 22 23 24 24 27 29 31 32 33 33 36 37 34 36 40 41 37 33 33 35 36 35 35 34 35 36 36 38 36 33 33 34 33 32 32 31 31 32 29 25 22 22 22 23 22 20 17 14 11 8 6 5 3 3 3 5 7 9
36 37 38 39 38 37 37 38 38 38 37 34 32 32 32 31 30 29 28 26 24 24 23 22 20 20 21 22 23 23 22 24 27 28 30 31 31 33 35 34 34 35 36 35 32 30 31 32 33 34 33 33 34 34 35 35 34 33 34 34 34 35 35 34 34 30 25 24 24 24 22 21 19 16 13 10 7 5 3 2 2 3 6 8 9
36 38 39 38 37 36 35 34 35 35 35 33 32 32 31 30 29 30 30 28 25 24 23 22 22 22 22 21 21 20 21 24 26 28 30 32 32 32 32 33 35 34 33 33 30 28 29 30 30 32 32 32 32 31 31 33 33 32 33 33 33 34 35 33 30 28 27 26 24 23 21 20 18 15 12 9 7 4 2 1 3 5 7 8 7
38 38 38 36 34 33 32 32 32 32 32 32 32 32 32 30 30 31 32 31 30 28 27 26 27 26 25 24 22 19 20 25 29 31 32 34 34 33 32 33 35 33 31 32 30 28 28 29 30 30 30 30 30 28 28 29 28 27 30 32 32 32 33 32 29 27 27 24 22 22 22 20 16 13 11 8 6 3 2 3 4 5 6 6 5
38 37 34 32 31 30 28 28 29 29 28 28 29 32 34 33 33 34 35 35 34 33 33 34 34 31 28 29 30 28 27 29 29 28 30 32 35 35 34 33 35 35 34 35 34 31 28 26 27 28 28 27 26 27 28 29 27 26 28 29 31 31 31 30 27 25 23 21 22 22 21 18 15 13 10 7 5 3 2 4 5 5 5 5 4
35 34 31 29 30 30 28 27 27 27 27 27 27 29 32 33 33 34 36 37 36 35 36 38 38 36 33 32 33 33 32 30 27 25 27 29 33 35 34 32 34 36 37 37 35 31 28 24 24 26 26 24 24 26 30 31 29 28 26 25 28 31 30 27 25 24 23 23 22 21 19 17 14 11 8 6 4 3 3 4 5 5 6 6 6
33 33 32 31 31 30 29 29 29 28 27 26 26 27 28 29 28 28 29 31 32 33 35 36 37 38 37 36 34 32 30 28 25 24 25 28 31 34 35 35 34 35 38 37 32 29 29 27 25 25 25 24 23 26 29 30 30 30 27 25 26 28 30 29 27 26 25 25 23 21 18 16 12 9 8 5 3 3 3 4 6 6 7 7 8
36 35 34 33 32 30 29 29 29 27 26 25 26 27 26 23 21 21 23 24 27 29 31 33 35 35 35 35 35 33 30 28 26 25 25 28 31 32 35 36 35 36 39 36 29 27 28 28 28 29 28 26 25 27 29 30 31 32 31 30 28 29 30 29 27 26 26 24 23 21 18 15 12 10 7 5 4 2 2 4 5 6 7 7 8
38 37 35 34 32 30 29 29 28 27 27 27 26 24 23 21 21 22 21 20 19 22 25 28 30 32 32 33 34 33 31 28 26 26 26 28 30 31 33 36 36 38 41 37 30 27 27 26 27 30 31 31 30 30 30 31 31 32 31 29 28 29 30 29 28 28 27 24 22 20 17 14 12 10 8 6 4 2 1 3 4 6 7 7 8
38 37 36 36 34 32 31 31 30 29 29 29 27 26 25 25 25 25 24 21 20 21 23 23 24 27 29 30 31 32 32 29 27 26 27 28 28 30 31 31 31 34 37 34 30 28 27 26 26 28 30 32 33 34 34 33 33 33 32 30 28 31 32 31 29 29 28 25 23 20 16 14 12 9 8 6 4 2 2 2 4 5 7 9 10
36 35 34 34 33 32 32 32 31 30 30 30 31 31 30 28 26 25 26 26 25 24 23 21 20 22 25 28 29 30 30 30 28 26 26 28 28 29 29 27 25 27 28 28 28 28 28 28 29 30 31 32 32 33 33 32 32 33 33 33 32 33 34 32 31 30 27 24 22 19 16 14 12 9 7 5 3 2 2 3 4 6 8 11 11
34 32 31 31 32 32 32 31 31 32 32 31 29 28 26 26 25 24 24 24 24 23 21 19 18 18 19 23 26 27 28 29 29 28 27 28 29 31 31 28 25 24 24 24 26 26 26 27 30 32 33 33 31 30 30 29 29 30 32 33 34 35 34 33 31 29 27 23 20 18 16 13 11 9 7 6 4 3 2 4 5 7 9 11 11
34 32 31 31 31 31 30 28 28 28 28 27 27 26 26 25 25 25 25 25 23 21 19 17 17 16 16 18 21 23 24 26 27 27 27 28 29 30 29 27 24 23 22 24 26 27 27 27 29 31 32 32 32 31 30 29 30 31 32 34 34 34 34 32 30 27 25 22 19 17 15 12 10 9 7 6 4 2 3 4 5 8 10 11 11
30 30 30 31 30 28 26 25 25 25 24 24 24 25 26 25 24 23 24 24 23 21 18 16 16 16 17 17 18 20 20 20 21 22 24 25 26 27 27 26 24 22 23 26 29 30 29 29 29 30 31 31 32 32 32 32 33 34 35 36 36 34 32 31 29 26 23 21 18 16 13 12 10 9 7 5 3 3 3 5 6 8 10 10 11
28 28 28 29 28 26 25 25 24 23 23 23 23 23 23 23 22 21 20 20 20 19 17 15 15 16 17 17 18 18 17 17 18 19 20 22 24 25 25 24 22 22 24 28 31 31 30 30 30 31 31 31 31 32 33 35 36 36 37 38 37 34 32 30 28 25 22 19 17 15 13 12 11 9 7 5 3 3 4 5 7 8 10 12 13
29 28 27 26 26 26 25 24 24 23 22 23 23 23 23 23 22 22 21 19 19 18 16 15 15 16 17 17 19 20 19 18 18 19 20 22 23 23 23 22 21 23 27 29 31 31 31 32 33 32 31 31 31 32 34 36 37 38 38 38 35 32 31 29 25 22 20 18 16 15 14 13 11 10 8 5 4 3 5 7 8 10 12 14 15
29 27 26 25 25 24 23 23 23 23 22 22 22 22 23 23 23 23 21 19 18 17 15 15 15 16 16 17 19 22 22 20 19 19 20 21 22 21 20 20 21 26 29 31 32 33 34 34 34 34 32 32 33 34 36 37 39 39 38 37 34 31 29 26 23 20 19 17 16 15 14 12 11 9 7 5 4 5 6 8 10 12 13 15 16
28 26 25 24 23 21 21 21 22 21 20 21 21 22 22 21 21 21 20 19 17 16 14 13 13 14 15 16 19 22 22 20 18 18 18 18 18 17 17 18 22 25 28 30 33 35 36 36 35 34 34 34 36 37 38 39 40 40 38 36 32 29 27 25 22 21 19 17 15 14 13 11 10 8 7 6 5 6 7 8 11 13 14 16 17
27 25 24 23 22 22 22 22 21 21 21 21 21 22 22 20 19 19 19 18 16 14 12 12 12 12 12 14 17 18 17 15 15 16 16 17 17 17 18 21 24 27 29 31 34 36 36 36 35 34 34 34 35 37 38 39 39 38 36 33 29 26 24 23 21 20 18 16 15 14 12 11 9 8 7 6 5 6 7 9 11 13 15 16 16
25 24 23 22 21 21 21 21 21 21 20 20 19 20 20 20 19 19 19 17 15 13 11 11 11 11 11 12 11 10 9 11 16 18 18 19 20 20 22 25 28 30 32 33 34 35 36 36 36 35 34 35 35 36 37 37 35 33 30 27 25 23 21 19 18 17 16 14 13 12 11 9 8 7 6 5 5 7 9 11 13 14 16 16 16
24 23 21 20 19 20 20 20 20 19 17 17 16 16 16 16 16 15 15 13 11 9 7 7 7 7 8 7 7 8 11 15 18 20 21 21 21 22 25 27 29 31 32 32 34 35 35 35 35 36 37 37 36 35 34 32 29 26 23 20 18 17 17 16 16 15 13 12 11 10 9 8 6 6 6 5 6 9 11 13 15 16 16 16 16
24 22 20 19 18 18 18 19 18 16 14 12 11 10 8 7 5 4 3 3 3 3 4 4 4 5 7 8 10 13 14 16 18 20 22 23 23 24 27 29 30 31 32 32 33 34 34 34 35 36 37 37 35 33 31 28 25 22 20 18 16 16 16 15 14 13 11 10 9 8 7 7 6 6 6 6 8 10 12 15 16 16 16 16 18
24 23 21 20 19 18 18 19 19 17 16 15 13 12 11 10 9 8 7 7 7 7 8 8 9 10 11 13 14 15 16 17 19 21 22 22 23 24 27 30 32 33 33 33 33 33 33 34 35 36 36 35 32 30 27 25 22 20 18 17 16 15 14 13 12 11 10 9 8 7 7 6 6 6 5 7 9 11 14 16 16 15 15 17 19
24 23 21 21 21 20 20 20 19 19 18 16 15 14 15 15 14 13 12 12 12 12 12 13 13 14 15 16 16 17 18 20 21 22 22 22 23 24 27 31 33 34 34 34 34 34 35 36 36 35 33 31 29 26 24 22 20 18 16 15 14 13 12 11 10 9 9 8 8 7 6 6 5 5 6 9 11 13 16 16 16 15 16 18 20
22 22 22 21 22 22 22 21 20 19 19 18 17 16 16 16 16 16 15 15 15 15 15 15 16 16 17 17 17 18 20 21 21 22 23 25 26 28 31 33 34 35 35 36 35 36 36 35 34 32 30 27 25 23 21 19 17 16 14 13 12 11 10 9 8 8 8 7 7 6 6 5 6 7 9 12 13 15 17 17 15 16 18 19 19
22 22 22 22 22 23 24 23 21 20 20 20 18 17 17 17 18 17 17 17 17 16 16 16 17 17 17 18 18 19 21 23 22 22 23 26 29 32 35 36 37 37 37 37 36 35 33 32 30 28 26 24 22 21 19 17 15 14 12 11 10 9 8 7 7 7 7 7 6 5 5 6 8 11 13 14 15 16 17 16 15 17 19 19 20
Wind_Direction
6 4 0 353 337 320 305 293 282 274 268 262 257 253 250 246 243 241 239 237 235 233 232 230 228 225 222 220 219 218 217 216 215 215 214 214 214 213 212 210 209 209 208 207 207 207 207 206 205 205 205 205 205 205 205 205 205 203 204 206 208 211 207 199 183 149 173 189 197 205 214 227 241 251 262 280 292 306 345 7 17 14 7 7 9
3 2 1 358 351 339 325 309 294 282 274 268 263 260 257 253 249 245 241 238 236 234 232 230 229 227 225 223 220 219 218 217 216 215 214 214 212 211 211 209 207 207 207 206 206 206 205 205 204 204 204 205 205 204 204 204 203 201 201 203 206 210 209 205 196 173 167 186 202 215 227 239 247 252 270 289 303 327 357 14 17 10 5 4 4
1 1 360 359 356 352 342 329 313 296 282 273 267 263 260 257 254 250 246 242 239 236 233 230 229 227 225 224 222 220 219 217 216 216 215 214 212 211 210 209 207 205 205 206 205 203 203 203 203 203 203 203 204 205 205 204 202 201 201 202 205 207 209 209 205 195 179 187 213 234 246 253 254 266 288 298 312 337 355 8 10 8 7 6 4
1 0 359 357 357 356 352 345 334 316 298 285 275 269 263 259 254 251 248 245 242 239 236 232 229 227 225 223 222 220 220 218 217 216 216 215 214 213 212 210 208 207 207 206 205 203 202 202 202 203 202 201 202 203 203 202 203 202 201 202 204 205 208 208 209 208 197 193 216 240 254 265 272 286 300 304 319 343 356 0 360 0 2 3 2
359 359 357 356 356 356 354 352 346 335 320 305 292 281 271 262 256 251 247 245 242 240 238 233 229 227 225 223 222 221 221 220 218 217 217 216 215 215 214 212 210 209 209 208 207 206 204 203 203 202 201 199 199 200 201 201 202 202 202 202 202 203 204 206 208 211 209 203 211 235 257 269 276 287 302 312 327 347 354 353 354 355 355 354 358
357 356 355 354 353 353 353 352 349 345 336 324 311 298 285 272 262 254 249 246 243 240 237 234 231 229 227 225 224 223 222 221 220 220 219 217 215 215 215 215 213 211 210 209 209 208 207 205 204 202 201 199 199 199 199 200 200 201 201 201 200 199 198 201 204 207 212 215 215 231 250 262 274 286 300 319 332 342 343 344 349 351 349 347 351
354 353 352 351 350 350 350 349 348 347 344 338 328 315 302 288 275 264 256 250 245 240 237 235 233 231 230 228 226 225 222 221 221 221 220 218 216 215 215 214 214 213 212 211 210 210 208 206 204 204 203 202 201 200 198 198 199 201 201 200 197 194 193 195 199 201 206 211 214 224 234 245 264 276 288 320 330 326 326 330 334 335 335 332 332
351 350 348 348 347 346 346 346 346 346 346 345 341 331 319 306 292 280 268 256 249 245 241 238 236 234 232 231 229 227 224 223 222 221 220 218 217 217 216 215 214 213 213 212 211 210 209 207 206 206 205 204 204 203 201 199 198 197 199 198 194 192 190 190 192 195 198 200 203 209 216 226 241 253 265 270 273 287 287 281 294 304 305 299 299
347 346 344 343 342 341 342 343 344 345 346 345 344 340 333 322 309 295 281 269 260 253 247 243 239 237 235 232 230 228 226 225 224 222 219 217 216 217 218 218 217 215 213 212 212 211 209 207 208 208 207 205 205 205 205 203 201 198 196 195 193 191 189 187 187 188 188 188 189 189 195 207 213 220 227 219 221 239 241 243 258 268 275 276 273
342 341 340 338 337 338 339 340 341 342 343 343 341 339 336 331 321 307 293 281 270 262 254 248 243 239 237 234 231 229 228 228 227 224 222 219 217 216 216 218 219 218 216 213 211 210 209 209 209 209 207 205 204 205 204 204 205 204 201 198 195 192 189 186 186 186 184 182 181 179 184 199 203 202 207 208 211 221 231 237 242 246 255 259 261
338 336 334 334 333 334 336 338 339 339 339 339 338 336 334 332 328 318 305 291 279 268 258 252 247 242 239 236 233 231 230 230 229 227 225 222 219 217 216 217 217 219 220 216 212 210 208 208 208 207 206 205 203 203 203 203 203 204 205 204 202 200 196 190 186 185 185 185 183 180 182 193 199 198 200 204 208 216 223 225 230 237 237 238 258
334 331 331 331 331 332 334 335 336 336 336 336 335 335 333 332 330 326 317 304 290 275 263 255 250 245 241 238 236 234 234 233 230 228 226 224 221 219 218 217 216 216 218 219 216 212 208 206 206 206 206 204 201 201 201 202 201 201 202 203 204 206 208 205 198 192 190 187 184 184 186 188 192 195 196 198 204 212 218 222 227 227 223 234 251
330 329 329 329 329 330 331 332 332 331 331 331 332 333 333 332 331 328 322 313 300 283 270 261 254 248 243 240 239 238 237 235 232 229 227 224 222 221 219 219 218 217 216 217 217 214 209 205 204 204 204 202 200 199 197 197 198 199 200 200 202 204 208 212 213 209 202 194 187 188 190 187 188 193 194 195 201 208 214 224 227 219 223 240 246
326 327 327 327 327 328 329 329 328 326 327 328 329 329 330 330 329 327 322 315 303 289 277 267 259 252 247 243 242 241 239 237 233 230 228 224 222 221 220 220 220 219 217 215 215 213 211 207 203 201 200 199 198 197 194 192 192 193 193 195 198 202 204 205 207 209 208 201 196 196 193 188 188 193 195 197 204 212 219 225 223 215 231 252 261
321 323 323 323 324 326 327 326 324 323 323 324 325 326 326 325 325 324 320 313 304 292 282 272 264 257 251 247 245 244 242 239 235 231 228 225 222 221 220 221 221 221 219 217 215 214 212 209 206 202 198 198 198 196 193 190 187 186 188 191 194 198 200 201 200 197 198 200 201 198 190 188 193 194 195 202 211 219 223 223 227 236 255 271 280
318 320 320 321 322 324 325 325 323 321 321 322 322 322 322 321 321 320 316 311 303 293 283 274 266 261 256 250 247 246 245 241 236 233 229 225 222 219 219 221 221 221 220 217 216 214 213 210 207 203 200 198 197 195 194 191 186 184 185 188 191 194 195 197 197 195 197 201 201 195 190 193 195 191 197 210 216 220 223 228 241 253 264 280 291
316 318 319 319 320 321 323 323 321 319 319 319 319 318 317 316 316 315 312 307 302 293 285 278 270 264 259 253 249 248 247 244 239 235 230 224 219 218 218 219 221 221 220 217 215 214 213 211 207 204 201 198 195 192 192 191 186 183 183 183 185 189 192 193 195 197 201 202 199 198 199 198 194 200 213 219 216 221 227 235 247 256 260 276 288
314 317 317 317 318 319 320 320 318 315 314 315 315 314 313 312 311 311 306 301 298 294 288 282 274 267 260 256 252 250 249 246 241 236 230 222 218 218 218 218 219 220 219 217 215 212 211 210 208 205 202 199 195 191 190 190 187 184 182 181 182 187 190 190 190 192 197 200 201 204 205 203 203 209 212 209 209 221 234 242 251 254 251 247 217
311 313 313 313 314 315 316 317 314 310 309 310 310 310 309 308 308 307 303 298 295 293 289 283 276 270 263 258 254 251 250 248 243 237 229 220 218 219 218 217 217 217 216 213 211 209 208 207 207 207 204 200 195 190 188 189 188 186 184 183 183 188 190 189 187 186 189 196 201 204 203 202 203 206 208 211 218 230 244 251 250 245 241 235 211
307 309 309 310 311 312 313 313 310 306 305 306 307 306 305 305 305 304 302 297 293 290 286 281 275 271 267 261 256 252 250 248 244 238 228 219 218 219 218 217 215 213 211 207 203 203 203 203 204 204 203 199 194 189 189 191 191 190 189 187 189 191 191 189 188 187 188 191 196 198 198 199 203 211 218 223 229 238 247 246 238 231 229 229 218
305 306 306 307 308 308 309 309 306 303 301 303 304 303 302 302 302 301 299 296 292 287 283 278 273 270 267 262 257 253 250 247 244 238 230 222 220 219 218 218 215 210 206 203 200 199 198 199 200 199 197 195 193 190 191 193 194 195 194 195 197 195 190 187 187 189 191 192 194 198 201 205 211 218 223 227 233 239 235 225 221 221 217 226 226
305 305 304 304 304 304 305 305 303 301 300 302 303 301 300 299 298 296 294 291 288 283 280 276 271 270 267 262 257 253 250 247 243 238 232 225 222 222 220 218 214 208 203 201 202 200 198 198 198 194 191 192 193 193 192 192 196 199 198 198 198 193 187 184 182 184 188 189 191 197 202 208 214 219 223 229 232 226 218 212 209 209 214 229 238
304 303 301 301 301 301 301 301 299 298 298 300 301 299 297 296 295 293 290 286 282 278 276 272 268 266 265 262 257 252 249 245 241 238 234 228 225 226 224 219 213 209 205 204 203 201 199 200 198 194 191 192 193 194 194 192 195 199 198 195 190 184 182 182 180 181 184 185 188 195 202 206 212 219 224 225 219 207 203 203 198 228 250 249 258
302 299 298 298 298 298 298 297 295 294 295 297 297 294 293 293 291 289 286 281 275 272 269 266 262 259 260 260 256 251 247 243 239 237 235 231 227 226 224 218 213 211 209 207 206 204 202 201 199 193 191 193 193 194 195 193 194 196 194 188 182 177 176 179 180 180 181 184 188 194 200 205 212 219 219 212 202 194 187 189 223 270 283 279 285
299 296 295 294 294 295 295 294 292 291 292 293 292 289 288 289 287 285 282 277 269 265 263 260 256 252 253 255 254 250 245 240 237 235 234 232 229 228 225 215 209 211 211 207 208 208 204 201 197 192 192 194 193 194 196 193 190 191 188 182 177 175 174 177 180 181 182 188 192 193 199 207 212 213 207 197 191 188 178 193 241 270 295 303 308
297 295 293 292 292 292 292 292 291 290 289 288 285 283 282 282 281 279 278 272 265 262 260 256 253 250 250 251 251 250 243 236 234 233 231 230 228 229 228 216 205 208 211 208 207 206 201 198 195 193 195 194 192 193 196 192 186 183 183 180 178 177 176 178 181 184 186 189 192 197 204 208 206 201 196 189 186 186 185 204 246 292 324 328 326
295 293 291 290 290 289 288 288 288 289 288 285 283 280 278 276 274 272 271 267 263 260 257 254 251 248 248 248 247 245 239 232 229 229 227 226 224 226 228 217 202 202 206 204 201 198 194 192 193 193 194 194 192 194 195 192 188 184 182 183 181 180 183 185 184 185 187 190 196 202 203 200 196 193 190 186 182 180 184 223 295 333 342 341 335
292 290 289 288 288 287 286 285 285 286 286 284 281 278 275 273 270 267 264 262 260 259 257 254 250 247 247 247 244 241 236 229 226 223 222 222 220 220 220 211 199 197 197 194 191 189 185 185 188 190 192 192 191 192 191 191 191 187 182 181 179 180 184 185 183 185 193 197 198 197 193 191 191 189 184 181 178 165 146 32 1 359 354 348 337
291 289 288 288 287 286 285 283 284 284 284 282 280 277 274 272 270 269 266 262 258 258 257 256 253 250 249 247 242 237 232 232 231 227 224 222 219 216 215 206 197 194 191 185 181 178 178 180 183 186 189 188 186 185 184 184 185 182 177 174 173 174 177 180 182 189 197 198 193 189 188 188 187 183 181 177 162 137 97 41 21 7 356 345 322
291 288 288 287 287 287 286 285 285 285 284 283 284 282 279 274 269 268 268 267 263 259 258 256 255 253 251 248 245 243 242 243 241 233 225 223 220 218 216 208 198 191 186 182 178 176 175 178 183 186 187 185 181 176 173 171 169 165 164 167 170 172 176 182 188 193 195 194 191 189 189 187 184 180 177 167 145 116 69 40 27 5 345 330 306
288 287 287 286 286 287 287 286 287 286 283 282 283 285 285 281 274 268 265 266 266 263 260 258 256 254 251 250 249 248 247 247 246 235 224 221 221 220 218 211 199 190 183 178 176 176 175 176 181 185 185 182 178 171 166 164 162 159 157 162 170 174 179 185 190 192 191 188 188 189 189 187 184 176 165 155 135 96 59 29 12 355 339 321 298
283 285 287 286 286 286 285 286 287 285 282 281 282 281 282 282 281 275 268 265 265 264 263 260 257 254 251 250 249 248 244 241 238 230 221 217 219 220 219 214 202 190 182 178 177 179 179 176 176 180 181 179 175 169 165 164 164 163 164 166 171 178 185 189 190 190 188 185 185 187 188 184 179 169 157 147 125 84 42 11 358 347 332 311 293
281 282 284 285 285 284 283 283 284 282 280 280 279 277 275 277 283 287 283 276 271 267 264 261 258 255 252 250 249 246 243 236 229 224 218 214 214 217 219 218 207 191 182 181 182 183 182 178 175 175 176 176 174 171 170 169 169 171 174 175 175 180 186 188 187 186 185 186 186 186 184 180 174 165 157 145 125 93 24 0 348 333 319 300 287
282 280 281 282 282 281 281 281 281 281 280 278 275 276 279 284 291 296 296 293 285 275 268 264 260 257 254 252 249 246 242 235 226 222 219 214 211 212 217 220 213 196 186 186 188 186 183 180 177 173 172 173 174 174 175 176 176 178 178 177 176 178 181 182 183 183 182 184 186 185 182 180 175 166 159 153 141 128 352 336 322 311 304 291 284
286 283 282 282 281 279 279 278 278 278 279 278 279 282 285 286 286 286 285 284 282 278 271 263 258 257 257 255 251 246 241 235 227 221 219 215 211 209 213 219 214 200 191 189 188 186 182 180 176 173 172 173 174 177 179 180 180 180 179 176 175 177 178 179 180 182 182 183 185 186 183 179 175 168 161 158 156 178 235 285 300 296 294 293 289
290 287 284 282 280 278 276 276 275 276 275 274 274 275 274 272 271 269 268 267 268 270 269 262 256 255 255 254 251 246 240 233 226 220 217 215 209 205 208 214 211 201 194 190 186 184 182 178 175 173 174 175 177 180 181 180 180 181 181 179 177 176 176 178 179 182 184 185 186 186 185 180 175 169 165 168 180 201 239 286 301 299 298 295 289
291 288 285 282 280 278 275 273 272 271 271 270 269 268 268 269 268 267 265 263 261 261 261 258 255 251 247 247 249 246 241 234 226 219 215 214 209 206 209 213 210 201 194 187 181 178 177 176 175 175 175 176 177 178 179 178 179 179 180 179 178 176 176 179 181 183 185 186 187 188 188 182 175 171 173 182 192 210 269 299 300 298 298 294 286
291 288 287 286 284 282 278 275 273 272 271 270 271 273 273 273 273 272 271 270 269 264 256 250 249 246 240 239 241 241 239 236 228 219 212 211 210 209 211 213 212 203 190 180 176 174 173 175 177 176 175 175 175 175 176 176 176 176 175 175 175 176 176 178 181 184 186 187 189 189 187 179 175 180 186 190 198 233 282 297 296 293 292 287 279
292 291 291 291 291 288 285 282 281 279 276 274 272 271 269 268 266 263 264 268 271 269 259 247 243 243 242 238 234 231 230 229 224 214 205 204 208 210 210 211 210 200 184 174 172 172 171 173 173 172 172 173 173 174 174 174 173 174 173 171 170 171 174 177 180 183 186 188 187 186 182 178 180 188 195 200 218 255 280 292 294 287 280 276 274
294 292 291 291 290 287 285 283 281 278 275 273 272 270 269 269 266 262 259 261 265 264 258 249 243 242 242 236 228 223 222 221 219 210 198 198 206 210 211 211 207 191 176 169 170 170 169 167 167 168 169 171 171 171 172 172 171 172 172 170 169 170 174 179 181 183 184 185 183 180 180 182 187 194 201 210 234 266 280 288 286 276 273 275 278
295 291 288 287 285 282 281 278 275 271 269 269 269 268 266 268 270 269 265 259 258 259 258 254 250 248 244 237 229 224 222 221 219 209 198 197 204 208 210 211 201 182 171 168 168 167 163 161 163 166 168 169 170 169 169 169 169 169 169 170 170 172 176 180 182 182 181 181 180 180 183 187 192 199 206 214 234 266 275 276 278 279 280 282 280
298 292 288 285 280 275 271 269 268 268 266 266 266 267 264 262 264 269 270 264 257 255 255 255 254 250 245 241 235 231 227 222 218 210 201 199 202 205 207 203 190 176 170 168 165 162 160 160 164 167 168 169 169 169 168 168 167 168 169 171 173 175 177 177 178 179 179 179 180 182 185 188 194 202 210 216 235 260 272 279 285 287 285 281 278
299 294 290 287 281 274 269 268 269 267 264 261 262 264 265 261 259 266 274 273 264 254 249 251 252 247 243 242 240 236 232 225 215 207 199 192 190 189 188 181 171 165 163 162 161 161 162 163 165 168 170 171 172 171 170 170 169 169 171 174 176 177 176 175 176 178 180 181 182 182 184 189 195 203 209 219 242 267 282 289 290 286 282 280 279
303 299 295 293 289 283 277 274 271 267 263 262 262 263 265 264 264 267 272 274 268 258 251 250 249 243 237 236 238 240 235 218 196 184 177 170 165 164 162 159 156 154 155 156 160 164 164 164 165 166 168 170 171 170 170 170 171 173 174 174 175 176 177 177 179 180 182 183 183 184 187 191 197 204 211 224 250 273 285 286 283 280 279 279 279
310 307 304 300 298 295 290 284 278 271 266 264 263 263 263 263 263 262 262 263 264 263 255 249 246 241 233 228 228 226 205 174 161 158 156 153 149 149 150 151 152 153 154 157 161 164 165 164 164 165 165 166 168 168 168 169 172 175 176 176 175 175 177 178 179 181 183 186 186 187 190 194 202 212 217 229 257 273 276 277 278 278 278 276 277
317 313 309 307 307 307 304 300 294 286 277 270 267 267 266 265 262 258 255 254 255 254 244 234 230 222 210 195 176 159 149 145 143 143 145 144 141 141 145 147 149 151 153 156 160 162 163 164 165 165 165 164 164 164 165 167 168 170 171 171 171 171 171 173 177 180 185 188 191 193 196 203 215 222 222 240 271 276 275 278 282 280 276 275 282
325 322 319 319 319 319 319 320 318 314 312 309 307 306 305 298 287 272 246 221 198 169 153 149 150 147 137 128 129 132 131 128 128 133 137 140 139 140 144 147 148 150 151 153 156 158 160 162 163 162 160 159 159 159 160 162 162 162 163 164 165 166 169 173 179 183 187 191 198 204 211 221 228 227 231 260 280 282 283 286 285 279 275 280 290
336 334 333 333 334 334 336 339 341 343 346 352 359 8 17 25 36 47 63 79 89 97 102 103 103 105 106 109 116 120 120 119 121 126 130 132 134 138 144 148 149 149 149 150 152 154 155 155 155 154 153 153 154 155 156 158 159 160 161 163 165 169 173 177 182 186 191 198 208 216 225 233 233 229 249 276 284 287 289 287 279 274 281 292 297
347 345 343 342 344 348 350 354 357 359 0 3 9 17 25 35 40 43 52 64 70 75 82 87 90 96 101 105 109 113 116 119 121 124 126 128 131 137 143 147 148 148 148 148 148 148 148 147 148 148 149 150 152 153 154 156 157 158 160 162 166 172 178 182 186 193 199 206 216 223 227 231 234 244 269 283 286 288 287 280 275 282 295 301 299
355 356 355 352 352 355 359 3 8 11 13 16 19 21 26 35 40 43 49 56 60 65 74 81 87 93 98 102 107 113 118 119 120 122 126 131 135 138 142 143 143 142 142 141 141 141 141 142 144 146 147 148 149 150 151 152 154 156 161 165 170 177 183 185 190 199 206 210 218 223 224 233 252 269 278 281 282 281 278 274 280 296 304 302 297
2 4 5 4 4 6 8 9 10 14 19 24 26 26 30 36 41 46 52 55 58 63 70 77 85 92 96 100 106 115 120 122 121 120 122 126 132 136 137 136 135 133 133 132 132 133 135 137 139 141 143 144 146 147 149 152 155 159 164 169 173 179 185 189 192 200 205 209 216 227 239 255 268 272 273 276 279 279 276 278 290 303 305 300 294
Height
732 731 731 731 730 730 730 729 729 728 727 725 724 722 722 722 722 723 724 724 726 728 730 731 732 732 733 733 733 734 736 737 740 743 745 747 749 751 753 755 757 759 761 763 765 767 769 771 773 776 779 782 784 787 789 791 793 795 796 799 801 803 805 807 809 813 817 818 819 821 822 823 824 825 825 825 824 823 822 820 818 816 814 814 813
733 732 732 731 730 730 729 728 727 726 724 722 721 720 720 720 721 721 721 722 723 723 725 727 729 731 731 731 730 731 732 733 736 738 740 742 744 746 747 749 751 753 755 757 758 761 764 766 768 772 775 778 780 782 785 787 788 789 791 793 797 799 802 803 805 808 813 816 817 818 819 820 821 822 822 822 820 819 817 816 814 813 812 812 812
734 733 732 731 730 730 729 727 726 724 722 719 717 717 717 717 718 719 719 720 721 721 721 722 724 725 727 728 729 729 729 730 732 733 735 737 739 740 742 743 745 746 748 750 752 755 758 761 763 766 770 773 776 778 780 783 784 784 786 789 792 795 798 800 801 803 807 810 812 813 814 816 817 818 818 817 815 814 813 812 811 811 810 810 810
734 732 731 730 729 729 728 726 724 722 720 717 715 714 713 713 714 715 716 718 719 720 720 720 720 720 721 722 724 726 727 727 727 728 730 733 735 736 737 738 739 740 741 743 746 748 750 753 757 760 764 767 770 773 776 778 780 780 782 784 787 790 793 796 798 799 802 805 807 807 808 810 811 812 813 812 811 811 810 809 809 808 808 808 807
735 733 732 730 728 727 726 725 723 721 718 715 713 712 711 710 710 711 712 714 715 716 717 717 717 717 716 716 718 719 722 724 724 724 724 727 731 733 734 734 735 736 737 738 739 740 743 745 749 753 757 761 764 767 770 773 775 777 778 780 783 786 789 792 794 796 798 800 802 803 804 805 806 808 809 808 808 807 807 807 806 806 805 804 804
739 737 735 733 730 728 726 724 722 720 717 714 712 710 709 708 707 707 708 709 710 711 712 713 713 713 712 713 713 714 716 719 721 721 721 722 724 728 730 731 731 732 733 734 734 734 736 738 742 745 749 752 755 758 762 766 769 772 774 776 778 781 784 788 790 793 795 796 798 799 801 802 803 804 805 805 805 805 805 804 804 804 804 803 802
741 739 738 735 733 731 728 726 723 720 717 714 711 709 708 706 705 704 704 704 705 706 707 708 709 709 709 709 709 710 712 714 714 716 718 720 721 723 724 726 727 728 729 729 729 730 731 733 735 737 740 743 746 750 754 759 763 766 769 771 774 777 780 783 787 789 791 793 795 796 798 799 800 801 803 803 804 804 804 804 804 805 805 804 803
742 741 739 736 735 732 730 727 724 721 717 714 711 708 706 704 703 701 701 700 701 702 703 704 704 705 705 705 706 707 709 709 709 709 711 714 718 720 721 721 722 722 723 724 725 726 728 730 730 731 733 737 739 742 746 751 756 760 764 767 770 772 775 778 782 786 788 790 792 794 796 798 799 800 801 802 803 804 805 806 806 806 806 805 803
743 741 739 737 735 733 730 728 725 721 717 713 710 708 705 703 701 699 698 697 697 698 699 700 700 700 700 701 702 704 704 703 703 704 705 707 710 713 717 719 719 719 718 719 720 722 724 726 727 728 730 733 735 738 741 745 748 751 756 760 764 767 770 773 777 781 785 787 790 792 794 796 797 798 799 800 802 803 805 807 807 806 807 805 803
742 741 739 737 735 732 730 727 724 721 718 714 711 708 705 702 699 697 695 694 693 694 695 695 695 695 696 697 698 699 698 697 698 700 702 703 705 707 709 713 716 718 717 715 715 716 719 722 724 726 729 731 733 736 739 742 743 745 748 752 756 760 764 768 772 776 780 783 786 788 791 793 794 795 797 798 800 802 804 805 805 805 806 804 801
741 740 738 736 734 731 728 725 723 720 717 715 712 709 706 702 698 695 693 691 691 691 691 690 690 691 692 693 693 693 692 692 694 697 698 700 701 703 703 705 708 713 715 714 712 712 714 717 721 724 726 728 730 733 736 739 741 744 746 748 751 754 757 761 765 770 774 778 781 783 786 788 790 791 793 796 798 800 801 802 803 803 802 801 798
741 738 736 734 732 729 727 724 721 719 716 714 711 708 705 701 696 693 690 688 688 687 687 686 686 687 688 688 688 687 687 688 690 692 693 695 697 699 701 701 702 704 707 711 712 712 712 714 716 719 721 723 726 730 733 737 739 742 745 748 750 752 754 756 759 763 768 772 776 778 780 783 786 787 789 791 794 796 797 798 799 798 798 796 794
740 737 735 733 731 728 726 723 720 718 715 713 710 707 703 698 695 692 689 687 686 684 684 683 683 683 684 683 683 682 682 683 685 687 688 690 693 695 697 698 698 698 699 703 708 711 711 711 712 714 717 720 722 725 729 733 737 740 744 746 749 752 755 756 757 759 762 766 770 772 774 778 781 783 784 787 789 791 793 793 793 793 793 792 790
739 736 734 733 731 729 726 723 719 716 713 711 708 705 701 697 694 691 688 686 684 682 681 680 680 680 680 679 678 678 678 678 680 682 684 685 688 690 693 694 694 694 694 695 700 703 706 707 708 709 712 715 717 720 724 728 733 736 740 742 745 749 752 754 756 758 760 763 766 768 770 774 777 779 781 783 785 786 787 788 788 788 787 786 784
738 736 734 732 730 727 724 721 718 714 711 708 705 702 700 696 693 690 687 685 683 681 679 677 676 676 676 676 675 673 673 675 677 678 679 681 683 685 688 690 690 690 690 691 693 696 699 701 703 705 707 709 711 714 718 723 727 731 735 738 741 745 748 750 752 754 756 759 762 765 768 771 774 777 779 780 781 782 783 783 783 783 783 781 779
735 734 732 730 728 725 721 717 714 710 707 704 701 699 697 695 692 689 686 683 681 679 677 675 673 672 672 672 671 669 669 672 674 674 676 678 680 681 683 685 685 685 685 687 689 692 694 696 698 700 702 704 707 710 714 718 722 726 730 733 737 741 745 747 749 752 754 756 760 763 766 768 771 774 776 777 779 779 779 779 779 779 779 778 775
732 730 729 727 724 721 718 714 710 706 704 701 698 696 695 693 690 688 685 681 679 677 674 672 670 669 668 668 668 666 666 668 669 670 672 674 676 677 678 679 681 681 681 682 684 686 689 691 693 696 698 700 703 707 711 714 717 722 725 730 734 738 742 745 748 751 753 755 758 761 763 764 767 770 773 775 776 775 775 775 775 774 775 774 771
729 727 725 723 720 718 715 712 708 704 701 699 697 694 692 690 688 686 683 679 675 673 671 669 667 665 664 664 664 663 662 664 666 667 668 670 672 673 674 675 676 676 677 678 680 682 684 687 689 692 694 697 700 704 706 708 711 716 720 725 729 733 736 740 745 749 752 755 757 760 761 762 763 766 769 770 771 771 771 771 770 770 770 769 768
726 724 721 719 717 715 712 710 706 703 699 697 695 692 689 687 684 683 680 676 672 669 667 665 663 661 660 659 660 660 659 660 663 664 665 667 668 669 670 670 670 671 673 675 677 680 681 683 685 687 689 693 697 700 702 703 706 710 714 719 723 726 730 734 738 744 749 753 756 758 759 759 760 763 765 766 766 767 767 767 766 766 765 764 765
723 721 718 716 714 711 709 707 704 701 697 694 692 690 687 684 681 678 676 673 669 665 663 661 659 656 656 655 655 655 656 656 658 660 662 663 664 665 666 665 665 667 670 673 675 677 678 680 681 683 686 689 693 696 699 700 702 706 710 713 716 720 725 729 734 740 745 749 752 755 755 755 758 760 762 763 763 763 763 763 762 762 761 761 762
720 718 715 712 710 707 706 704 701 698 695 691 688 685 682 680 678 675 672 669 665 661 658 657 655 652 652 652 651 651 651 652 653 655 657 659 660 661 660 659 660 664 667 670 671 673 675 677 679 681 684 687 690 693 696 698 700 703 706 709 713 717 721 726 731 738 743 746 749 751 752 753 756 758 759 759 760 760 760 759 758 757 757 758 759
716 714 711 708 706 704 701 700 697 694 691 688 685 680 677 675 674 671 669 665 661 657 654 652 651 649 647 648 647 646 647 647 649 651 652 654 656 656 655 654 657 660 663 665 667 669 671 674 676 679 682 684 687 691 693 695 698 701 704 709 713 716 719 723 729 735 739 743 746 748 749 751 753 755 756 756 756 756 755 755 754 754 754 755 756
714 711 707 704 702 700 697 695 693 690 687 685 682 677 672 670 669 667 665 661 657 654 651 649 647 645 644 643 643 642 643 643 644 646 648 649 651 652 651 651 653 656 657 659 661 664 667 670 673 677 680 682 685 688 691 693 696 699 703 708 712 715 718 722 728 733 735 738 741 745 747 748 750 752 753 753 753 752 751 750 750 751 752 752 753
710 707 703 701 697 695 693 691 689 686 684 682 679 674 669 666 664 661 659 657 654 651 648 646 644 642 640 639 638 638 638 639 640 641 643 645 647 648 649 648 649 651 653 655 657 660 662 666 670 674 677 680 683 686 690 692 694 697 702 706 709 712 715 720 726 730 733 735 738 741 743 745 747 749 750 749 748 747 747 746 747 748 748 749 750
705 702 699 696 693 691 688 686 683 681 679 678 675 670 665 662 659 656 654 653 650 647 644 642 641 638 636 635 634 633 633 634 636 637 639 641 643 645 646 645 645 647 649 652 655 657 661 665 668 672 675 677 680 684 688 690 693 696 699 702 705 707 711 716 722 727 729 732 735 737 739 742 745 747 747 746 744 743 743 743 744 744 745 745 746
700 697 694 691 689 687 684 680 677 675 673 672 670 666 662 658 654 651 650 648 645 642 639 638 636 634 632 630 629 628 629 629 631 633 635 637 639 641 643 642 642 643 645 649 652 655 658 662 666 670 673 675 678 681 685 688 691 694 697 699 699 702 706 712 717 721 725 728 731 733 736 739 743 744 743 742 740 739 740 740 740 740 741 741 742
697 693 689 686 684 682 679 675 671 668 667 665 663 660 656 654 650 646 644 642 640 637 635 633 631 630 627 625 624 624 624 624 626 628 631 633 634 637 639 640 640 641 643 646 649 652 655 659 664 668 671 674 676 679 683 686 689 692 694 694 694 697 702 707 712 717 721 724 726 729 734 737 740 740 739 738 737 737 737 737 736 737 737 738 739
692 688 684 681 679 676 674 671 667 663 660 658 657 653 650 648 645 640 637 636 634 632 630 628 626 624 623 622 621 621 620 619 620 622 625 628 630 632 634 635 636 637 639 641 646 649 653 657 661 665 668 671 673 676 679 683 685 687 689 690 691 696 701 706 711 715 718 721 724 727 731 735 736 736 735 735 735 735 735 734 734 734 735 736 736
687 683 679 677 674 671 669 666 663 660 656 652 649 646 643 642 639 633 629 629 628 627 625 623 620 619 619 618 618 617 614 612 612 616 620 623 626 628 629 629 631 633 635 638 642 646 649 652 656 659 662 664 667 671 675 678 681 684 686 688 691 695 701 705 709 712 716 718 721 724 728 731 732 733 733 733 733 733 733 732 732 732 733 734 734
681 677 675 673 669 667 664 661 659 656 652 648 644 639 635 634 633 627 622 621 621 621 619 616 614 614 614 612 612 611 609 607 608 612 615 619 622 624 626 626 626 627 629 633 637 641 645 648 651 654 656 659 662 665 668 673 677 681 685 688 691 695 700 704 707 711 715 717 720 724 727 729 730 730 730 731 731 731 730 730 731 731 731 732 732
675 670 669 668 665 662 660 656 654 652 648 644 641 635 628 624 622 620 617 614 613 614 612 609 608 609 608 607 606 607 606 606 607 608 610 614 618 620 622 623 623 623 624 627 630 634 637 642 646 650 653 656 659 662 665 669 675 680 684 687 690 694 698 702 707 711 714 717 720 724 726 727 727 727 728 728 728 728 728 728 728 729 729 729 730
671 665 664 662 659 658 655 651 649 646 643 640 638 633 626 619 613 610 610 609 608 606 604 603 601 601 602 602 601 602 602 603 604 605 606 609 613 616 619 619 619 620 622 623 625 627 629 633 638 644 649 653 657 661 663 667 672 677 681 685 689 692 695 700 704 708 712 715 720 723 725 725 725 725 725 725 725 725 725 725 725 725 726 727 729
667 662 659 656 654 652 649 646 643 640 638 635 632 628 624 617 610 605 603 603 602 600 598 597 595 595 595 596 596 597 597 598 600 601 602 604 607 612 615 616 616 616 617 618 620 622 624 626 629 635 642 649 655 659 662 666 669 673 677 681 684 688 692 697 702 706 710 714 718 720 722 722 722 722 722 721 722 722 722 722 722 723 724 725 727
661 657 654 651 648 645 643 641 638 635 632 630 626 622 619 615 611 606 602 599 597 595 593 591 591 590 590 590 591 592 593 594 596 597 599 600 602 606 611 614 614 613 612 612 614 617 620 623 625 628 633 640 648 655 660 664 667 671 675 678 682 686 690 694 699 703 707 711 715 717 718 718 718 718 719 718 719 719 719 720 720 720 722 723 724
654 651 649 647 643 639 637 635 633 630 627 625 622 619 615 612 610 607 603 600 595 591 588 586 586 586 586 585 585 586 588 589 591 593 596 597 599 603 607 610 610 609 607 607 610 613 617 620 624 627 630 634 640 647 653 658 663 667 671 675 679 683 687 691 696 701 705 708 711 713 714 714 715 715 715 716 716 717 717 718 718 718 719 720 721
648 645 642 640 637 634 631 630 627 625 623 620 617 614 611 608 606 602 600 597 592 587 583 581 582 582 582 581 581 582 583 585 586 589 592 594 595 599 601 602 602 603 603 604 607 610 614 617 621 625 629 633 638 644 649 654 659 664 667 670 674 678 683 688 694 699 702 706 708 710 711 711 712 712 713 713 714 715 715 715 715 716 717 718 718
643 639 636 634 631 628 625 623 621 619 616 613 610 608 605 602 600 596 593 590 586 581 578 577 577 578 577 577 578 578 579 581 582 585 588 590 592 594 594 595 596 598 600 602 604 607 612 616 619 623 627 631 637 643 648 652 657 661 664 668 671 676 682 687 692 696 700 703 705 707 708 709 709 710 711 711 712 713 713 713 713 714 715 716 716
638 634 631 628 625 622 619 617 615 613 610 607 605 603 600 597 595 592 589 585 581 577 574 573 574 574 573 573 575 576 576 578 579 581 583 586 588 589 589 591 594 595 596 599 602 605 610 614 618 622 626 630 635 641 646 651 655 658 662 666 671 676 681 686 690 694 697 700 702 704 705 706 706 707 709 710 710 710 710 711 711 712 713 714 713
632 629 626 624 621 618 615 612 610 608 605 603 600 598 595 593 590 588 586 582 578 574 571 569 569 569 569 571 572 573 574 574 574 575 578 580 583 584 585 587 590 591 593 596 599 603 607 612 617 621 626 630 635 639 643 648 652 656 660 664 670 675 680 683 687 691 693 696 699 700 701 703 704 705 706 707 707 707 708 708 709 710 711 711 711
628 625 621 619 617 614 611 609 606 604 602 599 596 594 591 588 585 583 580 577 574 571 568 566 566 566 567 569 570 570 571 571 570 571 573 576 579 581 582 584 586 588 590 593 597 600 604 609 615 621 626 630 635 638 642 647 651 655 659 663 668 673 677 681 684 687 690 693 695 697 699 700 701 703 704 704 704 705 705 706 707 708 708 709 708
625 621 617 614 612 609 607 604 602 600 598 595 593 590 587 585 582 579 575 572 570 567 565 564 564 564 565 566 567 568 568 568 568 569 570 573 575 578 580 582 584 586 588 592 595 598 602 607 613 620 625 630 634 638 642 647 650 654 658 663 668 672 676 679 682 685 687 690 692 694 696 697 699 700 701 701 702 702 703 704 704 705 705 706 706
621 617 613 610 607 604 602 599 596 595 593 591 589 586 583 581 579 576 572 568 566 564 563 562 562 562 563 563 564 565 565 565 566 567 568 570 573 576 578 580 581 584 587 590 593 597 601 606 612 618 623 628 633 637 641 645 648 653 658 663 667 671 675 678 681 683 685 688 690 691 693 694 696 697 698 698 699 700 700 701 701 701 702 703 703
618 614 610 607 603 600 597 594 591 590 588 586 584 582 579 576 574 572 569 566 563 561 561 561 561 561 561 562 562 562 562 563 564 565 567 569 572 574 577 579 581 584 588 591 594 597 601 606 612 617 622 627 631 635 639 643 647 652 657 662 666 670 674 677 680 682 684 686 688 689 691 692 693 694 695 696 696 697 698 698 698 699 699 700 700
615 611 607 603 600 596 593 590 587 585 582 580 579 577 574 572 571 568 566 564 561 560 559 559 559 559 559 560 560 560 560 561 562 564 566 568 571 574 576 579 582 586 589 592 596 599 602 606 611 617 622 628 632 636 640 644 648 653 657 661 666 669 672 675 678 680 683 685 686 687 689 690 690 691 692 693 694 694 695 695 695 696 696 696 696
612 609 605 601 597 593 589 586 583 580 577 576 574 572 570 568 566 565 563 561 560 559 558 558 558 558 558 558 559 559 559 560 562 564 566 569 572 575 578 581 584 587 590 594 597 600 603 607 611 616 622 628 633 637 642 646 651 656 659 662 666 669 671 674 677 679 682 683 685 686 686 687 688 689 689 691 691 692 692 693 693 693 693 693 693
611 607 603 599 595 592 588 584 580 577 574 572 569 567 565 564 562 560 560 559 558 558 557 557 557 557 557 557 558 559 560 561 562 564 567 570 573 576 580 583 586 589 592 595 598 600 604 607 612 616 622 628 633 639 644 649 654 658 662 664 667 669 671 674 676 678 681 682 683 684 684 685 686 687 687 688 689 689 690 690 690 690 690 690 689
610 607 603 599 595 591 587 583 580 576 572 570 567 565 563 561 560 559 558 558 557 557 557 557 557 557 557 558 559 560 562 563 565 566 569 572 575 578 581 585 588 591 594 597 599 602 605 609 613 618 624 629 635 641 646 651 655 659 662 665 667 669 671 673 675 677 679 681 681 682 682 683 684 685 685 686 687 687 687 687 687 686 687 687 686
610 607 603 599 596 592 588 584 581 577 574 571 568 566 564 563 561 560 560 559 559 559 559 559 560 560 560 561 562 563 564 566 568 570 572 574 578 581 583 586 589 592 595 598 601 604 607 611 616 622 627 632 638 643 648 652 656 659 661 664 666 668 670 672 674 676 678 678 679 680 681 681 682 683 683 684 685 684 684 684 684 684 684 684 683
611 608 604 601 597 593 590 586 583 580 577 574 572 569 568 566 565 564 563 563 563 563 563 563 563 564 564 565 566 567 568 569 571 573 575 578 581 584 586 589 592 594 597 600 603 607 610 615 620 626 631 636 640 645 649 652 655 658 660 663 665 667 669 671 672 674 676 676 677 678 679 679 680 681 681 682 682 682 682 681 681 681 681 680 679
612 609 606 603 599 596 593 589 586 583 581 579 576 574 573 571 570 569 568 568 567 567 567 567 568 568 569 569 570 571 572 574 575 577 579 581 584 587 590 592 595 598 601 604 607 611 615 620 625 630 635 639 642 646 649 652 655 658 660 662 664 666 668 670 671 672 673 674 675 676 676 677 678 679 679 680 680 679 679 679 678 678 677 676 675
614 611 608 605 602 600 596 593 590 587 585 583 581 579 578 576 575 574 574 573 573 573 573 573 573 573 573 574 575 576 577 578 580 582 584 586 589 592 594 596 599 602 605 608 612 616 620 625 629 633 637 640 644 647 650 653 655 658 660 662 664 665 667 668 669 670 671 672 673 674 675 676 677 677 677 677 677 676 676 676 675 675 674 673 672